Location: Ammerl�gen
(47.2167°N, 9.6000°E)
Time: 03:56:59
(UTC+00:00)

Cosmos 1356 - Pass Details

Date: 21 April 2021
Orbit: 438 x 442 km, 81.1° (Epoch: 16 May)

Event Time Altitude Azimuth Distance (km) Brightness Sun altitude
Rises 19:03:58 0° 354° (N) 2,449 7.6 -7.8°
Reaches altitude 10° 19:06:06 10° 1° (N) 1,572 6.5 -8.1°
Maximum altitude 19:09:24 44° 75° (ENE) 623 3.8 -8.6°
Drops below altitude 10° 19:12:41 10° 149° (SSE) 1,556 5.6 -9.1°
Enters shadow 19:12:47 - 150° (SSE) 1,601 5.7 -9.1°
